Bradford, PA

7:12 PM EDT on April 25, 2017 (GMT -0400)
Bradford Regional

Weather History for KBFD - July, 2013

Change the Weather History Date:

Friday, July 19, 2013

  Actual Average Record
Temperature  
Mean Temperature 75 °F 66 °F  
Max Temperature 87 °F 78 °F 88 °F (2011)
Min Temperature 63 °F 54 °F 40 °F (1965)
Degree Days  
Heating Degree Days 0 0  
Month to date heating degree days 5 1  
Since 1 June heating degree days 109 146  
Since 1 July heating degree days 5 1  
Cooling Degree Days 10 2  
Month to date cooling degree days 128 46  
Year to date cooling degree days 221 96  
Since 1 June cooling degree days 178 86  
Growing Degree Days 26 (Base 50)    
Moisture  
Dew Point 67 °F    
Average Humidity 72    
Maximum Humidity 93    
Minimum Humidity 50    
Precipitation  
Precipitation 0.00 in 0.13 in 0.89 in (1971)
Month to date precipitation 1.42 2.59  
Year to date precipitation 17.06 24.24  
Sea Level Pressure  
Sea Level Pressure 29.96 in    
Wind  
Wind Speed 7 mph (WSW)    
Max Wind Speed 15 mph    
Max Gust Speed 23 mph    
Visibility 7 miles    
Events      
T = Trace of Precipitation, MM = Missing Value Source: NWS Daily Summary

Daily Weather History Graph

Daily Weather History Graph

Search for Another Location

Airport or City:

Trip Planner

Search our weather history database for the weather conditions in past years. The results will help you decide how hot, cold, wet, or windy it might be!

Date:

Astronomy

Jul. 19, 2013 Rise Set
Actual Time 5:56 AM EDT 8:44 PM EDT
Civil Twilight 5:23 AM EDT 9:17 PM EDT
Nautical Twilight 4:42 AM EDT 9:58 PM EDT
Astronomical Twilight 3:54 AM EDT 10:45 PM EDT
Moon 5:45 PM EDT (7/19) 2:36 AM EDT (7/19)
Length of Visible Light 15h 53m
Length of Day
14h 48m
Waxing Gibbous, 86% of the Moon is Illuminated
Jul 19
Waxing Gibbous
Jul 22
Full
Jul 29
Last Quarter
Aug 6
New
Aug 14
First Quarter

Hourly Weather History & Observations

Time (EDT) Temp. Heat Index Dew Point Humidity Pressure Visibility Wind Dir Wind Speed Gust Speed Precip Events Conditions
12:53 AM 66.0 °F - 63.0 °F 90% 30.05 in 6.0 mi Calm Calm - N/A   Clear
1:53 AM 64.0 °F - 62.1 °F 93% 30.04 in 7.0 mi Calm Calm - N/A   Clear
2:53 AM 66.0 °F - 64.0 °F 93% 30.02 in 6.0 mi Calm Calm - N/A   Clear
3:53 AM 70.0 °F - 66.9 °F 90% 30.01 in 5.0 mi Variable 4.6 mph - N/A   Clear
4:53 AM 70.0 °F - 66.9 °F 90% 29.99 in 4.0 mi SW 4.6 mph - N/A   Clear
5:53 AM 71.1 °F - 68.0 °F 90% 29.99 in 4.0 mi Variable 3.5 mph - N/A   Clear
6:53 AM 71.1 °F - 68.0 °F 90% 29.99 in 3.0 mi Variable 3.5 mph - N/A   Clear
7:13 AM 72.0 °F - 69.1 °F 91% 30.04 in 3.0 mi Variable 3.5 mph - N/A   Scattered Clouds
7:25 AM 72.0 °F - 69.1 °F 91% 30.04 in 3.0 mi WSW 5.8 mph - N/A   Mostly Cloudy
7:45 AM 72.0 °F - 69.1 °F 91% 30.05 in 2.5 mi WSW 5.8 mph - N/A   Overcast
7:53 AM 72.0 °F - 69.1 °F 91% 29.99 in 3.0 mi WSW 5.8 mph - N/A   Mostly Cloudy
8:06 AM 73.0 °F - 69.1 °F 87% 30.05 in 3.0 mi Variable 4.6 mph - N/A   Mostly Cloudy
8:53 AM 75.9 °F - 69.1 °F 79% 29.99 in 6.0 mi Variable 6.9 mph - N/A   Haze
9:53 AM 80.1 °F 83.2 °F 70.0 °F 71% 29.99 in 10.0 mi West 9.2 mph - N/A   Clear
10:45 AM 81.0 °F 84.4 °F 70.0 °F 69% 30.03 in 10.0 mi West 10.4 mph 19.6 mph N/A   Mostly Cloudy
10:53 AM 81.0 °F 84.4 °F 70.0 °F 69% 29.98 in 10.0 mi West 8.1 mph 18.4 mph N/A   Mostly Cloudy
11:19 AM 82.0 °F 85.5 °F 69.1 °F 65% 30.03 in 10.0 mi Variable 6.9 mph 17.3 mph N/A   Mostly Cloudy
11:53 AM 84.0 °F 87.0 °F 68.0 °F 58% 29.97 in 10.0 mi WSW 12.7 mph 21.9 mph N/A   Mostly Cloudy
12:53 PM 82.9 °F 85.8 °F 68.0 °F 60% 29.95 in 10.0 mi West 10.4 mph - N/A   Mostly Cloudy
1:53 PM 84.9 °F 87.6 °F 66.9 °F 55% 29.93 in 10.0 mi SW 9.2 mph - N/A   Scattered Clouds
2:53 PM 84.0 °F 86.5 °F 66.9 °F 56% 29.91 in 10.0 mi Variable 6.9 mph - N/A   Scattered Clouds
3:53 PM 87.1 °F 89.9 °F 66.9 °F 51% 29.87 in 10.0 mi WSW 8.1 mph - N/A   Scattered Clouds
4:53 PM 84.0 °F 86.5 °F 66.9 °F 56% 29.86 in 10.0 mi Variable 5.8 mph 17.3 mph N/A   Scattered Clouds
5:53 PM 84.0 °F 87.0 °F 68.0 °F 58% 29.85 in 10.0 mi WSW 8.1 mph - N/A   Scattered Clouds
6:53 PM 82.9 °F 85.4 °F 66.9 °F 58% 29.85 in 10.0 mi WSW 8.1 mph - N/A   Partly Cloudy
7:53 PM 82.0 °F 84.5 °F 66.9 °F 60% 29.87 in 8.0 mi WSW 11.5 mph - N/A   Scattered Clouds
8:53 PM 79.0 °F - 66.9 °F 66% 29.84 in 7.0 mi SW 5.8 mph - N/A   Clear
9:53 PM 78.1 °F - 68.0 °F 71% 29.84 in 8.0 mi SW 5.8 mph - N/A   Clear
10:53 PM 75.9 °F - 66.0 °F 71% 29.86 in 9.0 mi SW 11.5 mph - N/A   Clear
11:53 PM 73.0 °F - 64.9 °F 76% 29.86 in 9.0 mi SW 5.8 mph - N/A   Clear